Location: Chircca
(13.7944°S, 72.0608°W)
Time: 06:19:17
(UTC+00:00)

Nadezhda 4 Rocket - Pass Details

Date: 14 July 2020
Orbit: 950 x 991 km, 82.9° (Epoch: 14 August)

Event Time Altitude Azimuth Distance (km) Brightness Sun altitude
Rises 08:36:35 0° 7° (N) 3,680 7.3 -36.7°
Reaches altitude 10° 08:39:08 10° 11° (N) 2,733 6.6 -36.1°
Maximum altitude 08:45:16 57° 88° (E) 1,145 4.5 -34.7°
Enters shadow 08:45:16 57° 88° (E) 1,145 4.5 -34.7°
